Temperature
-1 0 -0 -0 0 -0 -0 -0 -0 0 0 1 0 0 0 0 0 0 0 1 1 1 1 1 1 1 1 1 1 1 1 2 2 2 2 2 2 2 2 3 3 3 3 3
-1 -0 -0 -0 -0 -0 -0 -0 -1 -0 -0 0 0 -0 -0 -0 -0 -0 -0 0 0 0 1 1 1 1 1 1 1 1 1 1 1 1 1 1 2 2 2 2 2 2 2 2
-1 -1 -1 -0 -1 -1 -1 -1 -1 -1 -0 -1 -1 -1 -1 -1 -1 -1 -1 -0 -0 -0 0 0 0 0 0 1 1 0 0 0 1 1 1 1 1 1 1 1 1 1 2 2
-2 -2 -0 0 -1 -1 -1 -1 -2 -1 -1 -2 -2 -1 -1 -1 -1 -1 -1 -1 -1 -1 -1 -0 -0 -0 -0 -0 -0 -0 -0 -0 -0 -0 -0 0 0 0 0 1 1 1 1 1
-3 -2 -1 -0 -1 -2 -2 -2 -2 -2 -2 -2 -2 -2 -2 -1 -1 -2 -1 -1 -1 -1 -1 -1 -1 -1 -1 -1 -1 -1 -1 -1 -1 -1 -1 -1 -1 -0 -0 -0 0 0 1 1
-3 -2 -1 0 -1 -1 -1 -2 -2 -2 -3 -3 -3 -3 -3 -2 -2 -2 -2 -2 -2 -2 -1 -1 -1 -1 -1 -1 -1 -1 -2 -2 -2 -2 -2 -1 -1 -1 -1 -1 -1 -0 -0 0
-3 -3 -2 -1 -1 -1 -1 -1 -2 -2 -2 -3 -4 -3 -3 -3 -3 -2 -2 -2 -2 -2 -2 -2 -2 -2 -2 -2 -2 -2 -2 -2 -2 -2 -2 -2 -2 -1 -1 -1 -1 -1 -1 -1
-4 -3 -2 -2 -2 -2 -2 -2 -2 -2 -2 -3 -3 -3 -3 -3 -3 -3 -3 -3 -2 -2 -2 -2 -2 -2 -2 -3 -3 -3 -3 -3 -2 -2 -2 -2 -2 -2 -2 -2 -2 -2 -2 -1
-3 -2 -2 -2 -2 -1 -1 -2 -2 -2 -3 -3 -3 -4 -4 -3 -3 -3 -3 -3 -3 -3 -3 -3 -3 -3 -3 -3 -3 -3 -3 -3 -3 -3 -3 -2 -2 -2 -2 -2 -2 -2 -2 -2
-4 -3 -3 -2 -2 -2 -2 -2 -2 -3 -3 -3 -4 -4 -4 -4 -4 -3 -3 -3 -3 -3 -3 -3 -3 -3 -3 -3 -3 -3 -3 -3 -3 -3 -3 -3 -3 -3 -3 -3 -3 -3 -3 -2
-4 -4 -4 -3 -2 -2 -2 -3 -3 -3 -3 -4 -4 -4 -4 -4 -4 -4 -4 -4 -4 -4 -3 -3 -3 -3 -3 -3 -4 -4 -4 -4 -3 -3 -3 -3 -3 -3 -3 -3 -3 -3 -3 -3
-3 -3 -4 -3 -2 -3 -3 -3 -4 -4 -4 -4 -4 -4 -4 -4 -4 -4 -4 -4 -4 -4 -4 -4 -4 -4 -4 -4 -4 -4 -4 -4 -4 -4 -4 -4 -3 -3 -3 -3 -3 -3 -3 -3
-2 -2 -3 -3 -3 -3 -4 -4 -4 -4 -4 -4 -4 -4 -4 -4 -4 -4 -4 -4 -4 -4 -4 -4 -4 -4 -4 -4 -4 -4 -4 -4 -4 -4 -4 -4 -4 -4 -4 -3 -3 -3 -3 -3
-3 -3 -4 -4 -4 -4 -4 -4 -4 -4 -4 -5 -5 -5 -5 -5 -5 -5 -5 -5 -5 -5 -5 -5 -4 -4 -4 -4 -4 -4 -4 -4 -4 -4 -4 -4 -4 -4 -4 -4 -4 -3 -3 -4
-3 -4 -4 -4 -4 -4 -5 -5 -5 -4 -5 -5 -5 -5 -5 -5 -5 -5 -5 -5 -5 -5 -5 -5 -5 -5 -5 -5 -5 -5 -5 -5 -5 -5 -5 -5 -5 -4 -4 -4 -4 -4 -4 -4
-4 -4 -4 -4 -5 -5 -5 -5 -5 -5 -5 -5 -5 -5 -5 -5 -5 -5 -5 -5 -5 -5 -5 -5 -5 -5 -5 -5 -5 -5 -5 -5 -5 -5 -5 -5 -5 -5 -5 -5 -5 -4 -4 -4
-5 -5 -5 -5 -5 -5 -5 -5 -5 -5 -5 -5 -5 -5 -5 -5 -6 -5 -6 -6 -6 -6 -6 -6 -6 -6 -6 -6 -6 -5 -5 -5 -5 -5 -5 -5 -5 -5 -5 -5 -5 -5 -5 -5
-4 -4 -4 -5 -5 -5 -5 -5 -5 -5 -5 -5 -5 -6 -6 -6 -6 -6 -6 -6 -6 -6 -6 -6 -6 -6 -6 -6 -6 -6 -6 -5 -5 -5 -5 -5 -5 -5 -5 -5 -5 -5 -5 -5
-5 -5 -5 -5 -5 -5 -5 -5 -5 -5 -5 -6 -6 -6 -6 -6 -6 -6 -6 -6 -6 -6 -6 -6 -6 -6 -6 -6 -6 -6 -6 -6 -6 -6 -6 -6 -6 -6 -5 -5 -5 -5 -5 -5
-5 -5 -5 -5 -5 -5 -5 -6 -6 -6 -6 -6 -6 -6 -6 -6 -6 -6 -7 -7 -7 -7 -7 -6 -6 -6 -6 -6 -6 -6 -6 -6 -6 -6 -6 -6 -6 -6 -6 -6 -6 -6 -6 -6
-5 -5 -5 -5 -5 -5 -6 -6 -6 -6 -6 -6 -6 -6 -6 -7 -7 -7 -7 -7 -7 -7 -7 -7 -7 -7 -7 -7 -7 -7 -7 -7 -7 -7 -7 -6 -6 -6 -6 -6 -6 -6 -6 -6
-5 -5 -5 -5 -5 -6 -6 -6 -6 -6 -6 -6 -7 -7 -7 -7 -7 -7 -7 -7 -7 -7 -7 -7 -7 -7 -7 -7 -7 -7 -7 -7 -7 -7 -7 -7 -7 -7 -6 -6 -6 -6 -6 -6
-5 -5 -5 -5 -6 -6 -6 -6 -6 -6 -7 -7 -7 -7 -7 -7 -7 -7 -7 -7 -7 -7 -7 -7 -7 -8 -8 -7 -7 -7 -7 -7 -7 -7 -7 -7 -7 -7 -7 -7 -7 -6 -6 -6
-5 -5 -6 -6 -6 -6 -6 -6 -7 -7 -7 -7 -7 -7 -7 -7 -7 -8 -8 -8 -8 -8 -8 -8 -8 -8 -8 -8 -8 -7 -7 -7 -7 -7 -7 -7 -7 -7 -7 -7 -7 -7 -6 -6
-6 -6 -6 -6 -6 -6 -6 -7 -7 -7 -7 -7 -7 -7 -8 -8 -8 -8 -8 -8 -8 -8 -8 -8 -8 -8 -8 -8 -8 -8 -8 -8 -8 -8 -8 -7 -7 -7 -7 -7 -7 -7 -7 -6
-6 -6 -6 -6 -7 -7 -7 -7 -7 -7 -7 -7 -7 -8 -8 -8 -8 -8 -8 -8 -8 -8 -8 -8 -8 -8 -8 -8 -8 -8 -8 -8 -8 -8 -8 -8 -8 -8 -7 -7 -7 -7 -7 -7
-6 -6 -7 -7 -7 -7 -7 -7 -7 -8 -8 -8 -8 -8 -8 -8 -8 -8 -9 -9 -9 -8 -8 -8 -8 -8 -8 -8 -8 -8 -8 -8 -8 -8 -8 -8 -8 -8 -8 -8 -7 -7 -7 -7
Wind_Speed
6 6 4 6 8 7 9 8 8 8 9 11 7 7 6 5 5 5 6 6 6 5 5 4 4 4 3 3 2 2 1 1 2 2 2 1 2 1 1 1 2 2 2 3
5 5 5 8 9 9 9 7 9 9 11 6 6 4 5 6 5 6 7 7 7 6 5 4 4 4 3 3 2 2 1 2 2 2 1 1 2 1 1 1 1 2 2 3
4 4 3 6 7 7 5 5 6 9 9 5 6 6 6 6 6 6 7 7 6 5 5 5 4 4 3 3 2 1 1 2 2 2 2 2 2 2 1 2 2 2 2 3
1 2 5 6 1 4 5 6 5 5 5 5 7 7 6 4 4 6 6 6 6 6 6 5 4 4 3 2 2 1 1 2 2 2 2 2 2 2 2 2 2 2 3 3
2 3 7 6 2 2 3 5 4 5 5 5 4 4 4 2 4 4 6 6 5 5 5 4 4 3 3 3 3 2 2 2 3 2 2 2 2 2 2 2 2 2 3 3
2 3 6 5 3 2 2 5 3 2 4 4 3 3 5 5 6 6 6 5 5 5 4 4 4 3 3 3 3 3 3 3 3 3 2 3 3 3 2 2 2 3 3 3
4 5 7 5 2 2 2 5 2 2 2 2 2 4 6 7 6 5 5 5 5 4 4 4 4 3 2 3 3 3 3 3 3 3 3 3 3 3 2 2 2 2 3 4
4 4 7 2 2 3 5 2 1 2 2 2 3 4 5 5 6 6 6 5 5 4 4 5 4 3 3 3 4 3 3 3 4 3 3 3 2 3 2 2 2 2 3 4
7 7 3 1 3 3 2 2 2 2 2 2 3 4 5 5 5 5 5 5 4 4 4 5 4 3 3 4 3 3 3 3 3 4 3 3 2 2 2 2 2 2 2 3
4 6 4 4 3 2 2 2 2 2 2 2 3 4 5 5 5 5 5 4 4 4 5 5 5 5 4 4 3 3 3 3 3 3 3 3 3 2 2 2 2 3 3 3
4 5 4 4 4 3 2 1 1 2 2 2 3 4 4 5 5 5 4 4 3 4 5 6 6 6 5 4 3 3 3 3 3 3 3 3 3 3 3 3 4 3 3 3
6 5 4 5 3 2 2 2 2 2 3 3 3 4 4 4 5 4 4 4 4 4 5 5 5 6 5 5 3 2 3 3 3 2 2 2 2 3 4 4 5 5 5 4
4 2 3 3 2 1 1 2 2 2 3 3 3 3 3 4 4 4 4 4 4 4 5 5 5 5 5 4 3 2 3 3 3 3 3 3 3 3 3 4 4 4 4 5
2 1 1 2 2 2 2 2 2 2 2 2 3 3 3 3 4 4 5 5 5 5 5 5 5 6 6 4 4 3 3 4 3 3 3 3 3 3 3 3 3 3 4 4
2 2 3 2 1 2 2 2 2 2 3 3 2 3 3 3 4 5 5 5 5 5 5 5 5 6 5 4 4 4 3 3 2 2 3 3 3 3 2 3 3 3 3 3
2 1 0 0 2 2 2 2 2 3 3 3 3 3 4 4 4 5 5 4 4 5 5 5 6 6 5 4 4 3 3 4 4 3 2 2 2 2 2 2 3 3 3 2
2 2 2 2 3 3 3 3 3 3 3 3 4 4 3 3 4 5 5 5 4 5 5 5 6 6 5 4 3 3 3 3 4 3 2 3 2 2 2 2 2 2 3 3
4 4 4 4 4 3 3 3 3 3 3 3 3 2 2 3 4 5 6 6 5 5 5 5 5 6 5 4 4 3 3 2 2 2 3 3 2 2 2 2 2 2 2 2
2 2 2 2 3 3 3 3 3 3 3 2 2 3 3 4 4 5 5 5 5 5 6 6 7 5 5 5 5 3 3 3 3 3 2 3 3 2 2 2 2 2 1 1
1 1 1 1 1 1 2 2 2 2 2 2 2 3 4 4 4 4 4 4 4 4 5 6 5 4 4 5 5 3 3 3 3 3 2 2 2 2 2 2 1 1 1 1
1 1 1 1 2 2 2 2 2 2 2 2 2 3 4 4 4 3 3 4 5 5 5 7 4 4 4 4 4 2 2 3 3 3 3 2 2 2 2 2 1 1 1 1
2 2 2 2 2 2 2 2 2 2 2 2 3 3 3 4 4 4 4 4 5 7 5 4 3 5 5 5 2 2 2 3 3 2 2 2 2 2 2 2 1 1 1 1
2 2 2 2 2 2 2 2 2 2 2 3 3 3 3 4 3 3 4 4 4 7 6 4 6 7 7 3 2 2 3 3 3 3 3 2 2 2 2 2 2 1 1 1
2 2 2 2 1 1 2 3 2 2 3 3 3 3 3 3 3 3 3 6 7 7 4 6 8 8 6 3 3 3 3 3 3 3 3 2 2 2 2 2 2 1 1 1
2 2 2 1 2 2 3 2 2 2 2 2 3 3 3 2 3 4 4 4 6 6 4 6 8 7 4 3 3 3 3 3 3 3 2 2 2 2 2 2 1 2 1 1
2 2 3 3 3 2 2 2 2 2 2 2 3 3 3 2 3 3 3 4 4 5 4 4 4 4 3 3 3 3 3 4 4 3 3 3 3 2 2 2 2 1 1 1
1 1 1 2 2 2 2 2 2 2 2 2 3 3 3 2 2 3 3 3 3 3 3 4 3 3 3 3 3 3 3 3 3 3 3 3 3 2 2 2 2 1 1 1
Wind_Direction
256 262 244 248 254 238 223 220 226 249 258 274 285 294 302 307 313 319 321 321 321 320 319 320 325 326 324 323 321 309 303 289 278 278 280 285 290 282 263 245 254 248 250 254
275 266 256 263 258 242 237 237 241 262 273 276 290 300 308 313 318 318 317 318 322 324 324 323 325 326 327 326 326 328 321 306 307 307 300 294 293 286 275 275 272 272 268 265
265 304 329 271 243 218 217 224 215 240 257 303 304 302 302 302 307 311 312 315 319 321 320 315 313 315 313 312 322 318 301 299 312 310 309 307 303 300 288 282 281 287 288 283
263 13 244 248 208 190 214 238 228 246 270 272 279 291 287 280 298 312 316 316 317 317 319 318 321 324 324 331 339 324 308 305 308 305 303 307 297 294 293 274 274 287 286 285
185 241 274 287 251 190 211 261 239 245 280 300 311 318 308 305 322 313 312 311 310 311 314 323 328 331 352 2 356 349 335 323 316 305 297 295 290 292 285 282 292 295 293 291
183 216 245 260 272 220 138 275 258 237 275 303 345 314 297 322 325 326 327 324 325 329 336 341 333 348 16 358 354 336 322 314 311 302 291 287 288 290 287 281 289 297 301 298
208 231 263 264 275 105 174 264 282 248 261 277 249 247 284 311 322 329 328 327 334 340 342 337 338 2 8 350 331 317 320 320 321 319 303 292 296 293 288 293 300 298 298 300
185 217 256 258 129 185 231 279 288 293 284 270 269 285 300 312 322 329 332 336 342 344 337 337 344 359 353 327 314 320 323 325 324 321 313 310 307 305 301 294 296 297 298 304
199 219 256 235 211 237 226 252 266 278 285 281 291 299 309 315 319 324 327 333 339 341 335 337 342 346 329 312 312 316 322 320 316 315 314 309 302 303 302 287 274 281 282 288
244 258 259 267 260 275 248 250 263 248 264 282 284 295 306 309 315 322 325 329 334 339 337 333 335 333 312 311 319 324 322 314 308 310 314 315 304 291 274 265 264 272 271 273
252 275 305 284 255 258 265 267 286 288 274 268 275 288 296 305 306 311 319 323 329 332 327 323 328 330 329 324 324 324 317 311 314 314 306 310 304 291 280 263 257 258 257 257
231 231 220 261 271 258 254 270 264 274 302 301 280 281 294 301 300 306 314 320 326 326 323 320 323 324 326 327 322 318 318 315 312 309 303 298 301 309 306 290 292 285 279 274
229 233 225 253 281 294 275 287 285 271 272 290 299 290 295 302 308 311 314 317 316 315 315 315 319 320 320 321 320 305 294 298 302 302 302 300 296 297 303 312 309 302 297 291
226 147 263 254 266 295 307 309 313 313 302 295 294 303 304 308 314 317 313 310 310 314 316 317 319 317 317 318 317 307 296 294 291 286 286 287 283 282 282 290 302 305 307 296
258 235 231 256 282 314 323 331 334 321 321 323 317 309 308 309 308 307 308 312 314 315 316 319 316 313 317 319 318 314 309 299 290 285 283 282 282 285 287 288 288 290 295 300
276 317 174 221 278 299 312 305 294 294 300 301 302 302 299 298 300 304 309 311 311 311 314 315 310 310 316 317 315 315 307 302 302 299 296 291 289 287 289 288 286 283 282 284
179 241 252 267 274 282 279 274 268 272 282 287 290 300 310 315 315 317 317 316 305 301 306 307 306 313 316 314 308 306 302 305 308 307 297 290 288 280 275 276 276 281 282 286
214 223 225 224 235 261 281 285 284 289 284 283 296 304 308 310 308 310 314 319 321 318 309 303 307 314 318 317 312 306 304 306 306 300 300 297 294 291 286 285 283 280 286 302
212 223 230 233 236 239 257 278 287 292 296 301 302 295 293 293 298 305 313 319 320 317 314 313 322 329 321 317 320 311 309 309 312 312 308 310 316 310 300 293 291 287 290 302
228 241 231 256 265 244 259 279 285 295 297 300 301 305 308 307 308 311 314 308 295 289 302 316 322 321 316 316 323 316 312 311 313 317 319 317 314 311 310 310 313 309 289 278
243 244 241 260 283 283 268 267 275 287 297 295 284 287 294 304 311 316 316 313 309 310 312 322 329 318 313 318 324 326 322 319 318 315 312 310 310 309 309 310 313 313 292 272
241 244 248 257 272 291 293 280 270 275 290 295 293 293 301 309 315 311 288 281 302 324 330 321 316 317 326 334 339 329 322 319 318 316 313 309 306 306 308 309 309 312 298 273
239 237 240 247 250 268 294 291 274 261 267 272 275 280 282 286 290 296 305 307 308 321 327 315 320 329 338 346 334 327 322 316 314 313 311 306 303 306 311 312 311 308 298 271
240 240 245 249 223 255 288 291 289 276 271 275 273 273 277 291 294 273 272 304 319 322 321 320 329 336 343 345 329 324 320 316 315 316 316 315 315 315 311 315 320 318 309 281
233 231 226 219 234 252 263 283 297 295 296 290 288 286 276 263 271 293 299 301 316 325 324 329 337 342 346 333 326 321 318 318 321 327 327 325 320 316 312 314 315 316 320 319
224 229 233 233 237 246 251 254 267 279 288 296 301 295 295 291 284 292 302 308 311 324 327 324 325 331 331 328 327 326 325 324 326 329 325 320 317 314 313 316 311 310 316 323
238 240 247 269 270 252 245 244 252 266 268 272 287 295 300 305 308 311 312 315 317 319 319 320 319 320 322 325 328 328 326 324 323 323 322 317 313 309 309 310 312 310 310 321
Height
1481 1477 1478 1477 1476 1475 1476 1474 1475 1467 1464 1457 1456 1455 1452 1449 1447 1445 1442 1440 1438 1436 1434 1432 1430 1429 1427 1426 1425 1425 1424 1424 1423 1424 1425 1425 1426 1427 1427 1428 1428 1429 1429 1430
1480 1475 1475 1474 1470 1470 1470 1469 1468 1465 1460 1455 1454 1452 1450 1447 1445 1443 1441 1439 1436 1434 1432 1430 1428 1427 1425 1424 1423 1422 1421 1421 1421 1421 1422 1422 1423 1424 1424 1424 1425 1426 1426 1426
1481 1477 1474 1471 1465 1465 1466 1464 1463 1462 1456 1454 1453 1450 1448 1446 1444 1442 1439 1437 1435 1433 1431 1429 1427 1425 1423 1422 1421 1420 1419 1419 1419 1419 1419 1419 1420 1420 1420 1421 1422 1422 1422 1423
1483 1481 1476 1464 1460 1460 1460 1459 1458 1456 1453 1452 1450 1447 1446 1444 1442 1440 1438 1435 1433 1431 1429 1427 1425 1423 1421 1420 1419 1418 1417 1417 1416 1416 1416 1417 1417 1417 1417 1418 1418 1418 1419 1419
1484 1482 1472 1461 1458 1459 1460 1458 1454 1453 1451 1449 1448 1445 1443 1442 1441 1439 1436 1434 1432 1429 1427 1425 1423 1421 1419 1418 1417 1416 1415 1414 1414 1414 1414 1414 1414 1414 1414 1415 1415 1415 1415 1415
1482 1478 1470 1459 1455 1454 1458 1456 1451 1450 1449 1448 1447 1448 1443 1440 1438 1436 1434 1432 1430 1427 1425 1423 1422 1420 1418 1416 1415 1414 1413 1413 1412 1412 1411 1411 1411 1411 1412 1412 1412 1412 1412 1412
1480 1478 1466 1456 1454 1454 1460 1454 1449 1448 1447 1447 1446 1446 1443 1439 1437 1435 1433 1431 1428 1426 1424 1422 1420 1418 1416 1415 1414 1413 1412 1411 1410 1410 1409 1409 1409 1409 1409 1409 1409 1408 1408 1407
1477 1476 1465 1453 1453 1455 1453 1449 1448 1447 1446 1445 1443 1442 1440 1438 1435 1433 1431 1429 1427 1425 1423 1421 1419 1417 1415 1413 1413 1411 1410 1409 1408 1408 1407 1407 1406 1406 1406 1406 1405 1405 1404 1404
1464 1460 1453 1451 1450 1449 1448 1447 1446 1445 1444 1443 1441 1439 1438 1436 1434 1432 1430 1428 1426 1424 1421 1420 1418 1416 1414 1413 1412 1410 1409 1408 1407 1406 1405 1405 1404 1403 1403 1403 1403 1402 1401 1400
1459 1453 1450 1449 1448 1447 1446 1445 1444 1444 1443 1441 1439 1438 1436 1434 1432 1430 1428 1427 1425 1423 1420 1419 1417 1415 1413 1412 1410 1409 1407 1406 1405 1404 1403 1403 1402 1402 1401 1401 1400 1399 1399 1398
1456 1451 1448 1446 1446 1445 1444 1443 1442 1441 1441 1439 1438 1436 1435 1433 1431 1429 1427 1425 1423 1421 1419 1418 1416 1414 1412 1410 1409 1407 1406 1404 1403 1402 1401 1401 1400 1399 1399 1398 1398 1398 1397 1396
1450 1446 1447 1445 1444 1443 1441 1440 1440 1439 1437 1437 1436 1434 1433 1431 1429 1427 1425 1424 1422 1420 1418 1416 1414 1413 1411 1409 1407 1405 1404 1403 1401 1400 1399 1399 1398 1397 1397 1397 1396 1396 1395 1394
1444 1443 1443 1442 1442 1441 1440 1438 1438 1437 1436 1434 1433 1432 1431 1429 1427 1426 1424 1422 1420 1418 1417 1415 1413 1411 1409 1408 1406 1404 1402 1401 1400 1399 1397 1396 1396 1395 1394 1394 1394 1393 1392 1392
1442 1442 1441 1440 1439 1439 1438 1437 1436 1435 1433 1433 1431 1430 1429 1427 1425 1424 1422 1420 1418 1416 1415 1413 1411 1409 1408 1406 1404 1402 1401 1399 1398 1397 1396 1395 1394 1393 1393 1391 1390 1389 1390 1389
1439 1439 1439 1438 1437 1437 1436 1434 1433 1432 1431 1430 1430 1428 1427 1425 1424 1422 1420 1418 1416 1414 1413 1411 1409 1407 1405 1404 1402 1400 1398 1397 1396 1395 1394 1393 1392 1391 1390 1390 1389 1388 1387 1387
1437 1437 1436 1436 1435 1434 1433 1432 1431 1430 1429 1429 1428 1427 1425 1424 1422 1420 1418 1416 1415 1413 1411 1409 1407 1405 1403 1401 1399 1397 1396 1395 1394 1393 1392 1391 1390 1389 1388 1388 1387 1386 1385 1384
1435 1434 1434 1433 1433 1432 1432 1431 1430 1429 1428 1427 1426 1425 1423 1422 1420 1418 1416 1415 1413 1411 1408 1406 1404 1403 1401 1399 1397 1395 1394 1393 1392 1391 1390 1389 1388 1387 1386 1385 1384 1383 1383 1383
1433 1432 1432 1431 1431 1430 1430 1429 1428 1427 1426 1425 1424 1423 1422 1420 1418 1416 1415 1413 1411 1409 1407 1404 1402 1400 1399 1397 1395 1393 1392 1391 1390 1388 1387 1386 1385 1385 1384 1383 1382 1382 1381 1381
1430 1430 1430 1430 1430 1429 1428 1428 1427 1426 1425 1424 1422 1421 1420 1418 1417 1415 1413 1411 1409 1406 1405 1403 1401 1399 1397 1395 1393 1392 1390 1389 1388 1387 1386 1384 1384 1383 1382 1382 1381 1380 1380 1379
1429 1429 1429 1428 1428 1428 1427 1426 1426 1425 1424 1422 1421 1419 1418 1416 1415 1413 1411 1409 1408 1405 1403 1401 1399 1397 1395 1393 1392 1390 1389 1388 1386 1385 1384 1383 1382 1381 1380 1379 1379 1378 1378 1377
1428 1427 1427 1427 1427 1426 1426 1425 1424 1423 1422 1420 1419 1418 1416 1415 1413 1411 1409 1407 1406 1404 1402 1399 1397 1395 1393 1392 1390 1389 1387 1386 1385 1383 1382 1381 1380 1379 1378 1377 1377 1376 1376 1376
1426 1426 1426 1425 1425 1425 1424 1423 1422 1421 1420 1419 1417 1416 1414 1413 1411 1409 1408 1406 1404 1402 1400 1398 1396 1394 1392 1390 1389 1387 1386 1384 1383 1382 1380 1379 1378 1377 1376 1376 1375 1375 1374 1374
1425 1424 1424 1424 1423 1423 1422 1421 1421 1420 1418 1417 1416 1414 1413 1411 1410 1408 1406 1404 1402 1400 1398 1396 1394 1392 1391 1389 1387 1385 1384 1383 1381 1380 1379 1378 1377 1376 1375 1374 1374 1373 1373 1373
1423 1423 1422 1422 1421 1421 1420 1419 1418 1418 1417 1415 1414 1413 1411 1409 1408 1406 1404 1402 1400 1398 1396 1394 1393 1391 1389 1387 1385 1384 1383 1381 1380 1379 1378 1376 1375 1374 1374 1373 1372 1372 1372 1372
1421 1420 1420 1419 1419 1418 1418 1417 1416 1415 1414 1413 1412 1411 1409 1407 1406 1404 1402 1400 1399 1397 1395 1393 1391 1389 1387 1386 1384 1383 1381 1380 1379 1378 1376 1375 1374 1373 1372 1372 1371 1371 1370 1371
1418 1418 1417 1417 1417 1416 1416 1415 1414 1413 1412 1411 1409 1408 1407 1405 1404 1402 1400 1399 1397 1395 1393 1391 1390 1388 1386 1384 1383 1382 1380 1379 1378 1377 1375 1374 1373 1372 1371 1371 1370 1370 1370 1370
1415 1415 1415 1414 1414 1413 1413 1412 1411 1410 1409 1408 1407 1406 1404 1403 1402 1400 1399 1397 1395 1393 1392 1390 1388 1387 1385 1383 1382 1381 1379 1378 1377 1376 1374 1373 1372 1371 1370 1370 1369 1369 1369 1369